EZY34PM EGAA-EGNS

Flight info

Callsign EZY34PM
Flight time 0h 13m
Altitude 11000
Route LISBO DCT RINGA DCT SLYDA L10 IOM
Aircraft A319/M-SDE3FGHIRWY/LB1

Departure

Time 2026-04-28 14:51
Airport Belfast International Airport (EGAA)

Arrival

Time 2026-04-28 15:04
Airport Isle of Man Airport (EGNS)
Time Latitude Longitude Altitude Speed Heading
2026-04-28 14:47 54.66071 -6.21551 272 ft 1 kts 335°
2026-04-28 14:48 54.66024 -6.21513 272 ft 7 kts 335°
2026-04-28 14:48 54.65983 -6.21463 272 ft 7 kts 292°
2026-04-28 14:48 54.65983 -6.21393 272 ft 0 kts 245°
2026-04-28 14:48 54.65982 -6.21400 272 ft 2 kts 245°
2026-04-28 14:49 54.65956 -6.21495 272 ft 18 kts 245°
2026-04-28 14:49 54.65876 -6.21792 274 ft 35 kts 245°
2026-04-28 14:49 54.65776 -6.22190 275 ft 36 kts 256°
2026-04-28 14:49 54.65747 -6.22614 272 ft 35 kts 265°
2026-04-28 14:50 54.65592 -6.22758 272 ft 29 kts 163°
2026-04-28 14:50 54.65494 -6.22528 275 ft 27 kts 68°
2026-04-28 14:50 54.65618 -6.22067 273 ft 79 kts 65°
2026-04-28 14:50 54.65900 -6.20995 286 ft 146 kts 68°
2026-04-28 14:51 54.66052 -6.20439 427 ft 152 kts 65°
2026-04-28 14:51 54.66541 -6.18730 1239 ft 157 kts 67°
2026-04-28 14:51 54.66965 -6.16904 1967 ft 175 kts 75°
2026-04-28 14:51 54.66841 -6.14697 2482 ft 203 kts 117°
2026-04-28 14:52 54.65958 -6.12596 3143 ft 229 kts 126°
2026-04-28 14:52 54.64920 -6.10320 3932 ft 252 kts 126°
2026-04-28 14:52 54.63592 -6.07427 4796 ft 283 kts 126°
2026-04-28 14:52 54.62523 -6.05117 5376 ft 305 kts 127°
2026-04-28 14:53 54.61122 -6.02103 6013 ft 331 kts 127°
2026-04-28 14:53 54.59601 -5.98848 6596 ft 355 kts 127°
2026-04-28 14:53 54.58018 -5.95489 7360 ft 367 kts 127°
2026-04-28 14:53 54.56390 -5.92039 8177 ft 374 kts 127°
2026-04-28 14:54 54.54738 -5.88536 9032 ft 379 kts 127°
2026-04-28 14:54 54.53070 -5.84989 9887 ft 384 kts 126°
2026-04-28 14:54 54.51405 -5.81447 10686 ft 389 kts 126°
2026-04-28 14:54 54.49694 -5.77817 11224 ft 401 kts 126°
2026-04-28 14:55 54.47860 -5.73929 11419 ft 397 kts 126°
2026-04-28 14:55 54.46168 -5.70362 11470 ft 390 kts 126°
2026-04-28 14:55 54.44445 -5.66735 11466 ft 392 kts 126°
2026-04-28 14:55 54.42711 -5.63096 11467 ft 393 kts 126°
2026-04-28 14:56 54.40977 -5.59468 11464 ft 393 kts 126°
2026-04-28 14:56 54.39259 -5.55818 11468 ft 393 kts 124°
2026-04-28 14:56 54.37630 -5.52055 11420 ft 392 kts 122°
2026-04-28 14:56 54.36077 -5.48227 11161 ft 390 kts 121°
2026-04-28 14:57 54.34569 -5.44376 10993 ft 389 kts 121°
2026-04-28 14:57 54.33572 -5.41819 10881 ft 389 kts 121°
2026-04-28 14:57 54.31550 -5.36698 10653 ft 388 kts 121°
2026-04-28 14:57 54.30039 -5.32937 10485 ft 387 kts 122°
2026-04-28 14:58 54.28490 -5.29121 9886 ft 387 kts 122°
2026-04-28 14:58 54.26968 -5.25402 9211 ft 380 kts 122°
2026-04-28 14:58 54.25458 -5.21725 8369 ft 376 kts 122°
2026-04-28 14:58 54.23962 -5.18095 7681 ft 369 kts 123°
2026-04-28 14:59 54.22605 -5.14807 7070 ft 365 kts 123°
2026-04-28 14:59 54.21175 -5.11336 6383 ft 361 kts 123°
2026-04-28 14:59 54.19676 -5.07929 5712 ft 359 kts 128°
2026-04-28 14:59 54.18018 -5.04743 5035 ft 357 kts 130°
2026-04-28 15:00 54.16346 -5.01642 4361 ft 354 kts 131°
2026-04-28 15:00 54.14668 -4.98585 3712 ft 351 kts 131°
2026-04-28 15:00 54.12999 -4.95558 3588 ft 350 kts 131°
2026-04-28 15:00 54.11329 -4.92523 3504 ft 350 kts 131°
2026-04-28 15:01 54.09662 -4.89494 3016 ft 338 kts 131°
2026-04-28 15:01 54.08147 -4.86737 2821 ft 306 kts 131°
2026-04-28 15:01 54.06944 -4.84003 2698 ft 272 kts 110°
2026-04-28 15:01 54.06700 -4.80988 2443 ft 250 kts 84°
2026-04-28 15:02 54.06948 -4.78164 2100 ft 234 kts 78°
2026-04-28 15:02 54.07185 -4.75629 1747 ft 219 kts 80°
2026-04-28 15:02 54.07391 -4.73131 1395 ft 207 kts 81°
2026-04-28 15:02 54.07574 -4.70805 1106 ft 188 kts 81°
2026-04-28 15:03 54.07742 -4.68678 798 ft 174 kts 80°
2026-04-28 15:03 54.07898 -4.66696 532 ft 164 kts 82°
2026-04-28 15:03 54.08044 -4.64829 230 ft 159 kts 82°
2026-04-28 15:03 54.08250 -4.63014 43 ft 140 kts 76°
2026-04-28 15:04 54.08397 -4.61811 42 ft 63 kts 78°
2026-04-28 15:04 54.08484 -4.61406 42 ft 19 kts 18°
2026-04-28 15:04 54.08539 -4.61566 43 ft 21 kts 275°
2026-04-28 15:04 54.08551 -4.61815 43 ft 21 kts 275°
2026-04-28 15:05 54.08533 -4.62050 47 ft 20 kts 258°
2026-04-28 15:05 54.08506 -4.62273 47 ft 19 kts 258°
2026-04-28 15:05 54.08478 -4.62493 46 ft 19 kts 257°
2026-04-28 15:05 54.08448 -4.62723 44 ft 21 kts 257°
2026-04-28 15:06 54.08431 -4.62855 42 ft 22 kts 257°
2026-04-28 15:06 54.08487 -4.63005 44 ft 21 kts 348°
2026-04-28 15:06 54.08611 -4.63097 46 ft 20 kts 314°
2026-04-28 15:06 54.08633 -4.63262 45 ft 9 kts 221°
2026-04-28 15:07 54.08629 -4.63268 44 ft 0 kts 223°